FW9496 Weather Reports


time (UTC)temp
C
wind
direction
speed
KPH
gust
KPH
rain 1hr
cm
rain 24hr
cm
rain mn
cm
humidity
%
barometer
mb
20260505140610 0 98 4.8 14.5 0.00 0.03 0.00 89 1008.1
20260505140109 0 113 4.8 14.5 0.00 0.03 0.00 89 1008.1
20260505124602 2 151 6.4 17.7 0.00 0.03 0.00 79 1007.0
20260505123603 2 88 9.7 25.7 0.00 0.03 0.00 79 1006.9
20260505122602 2 99 11.3 25.7 0.00 0.03 0.00 78 1006.9
20260505122105 2 114 9.7 25.7 0.00 0.03 0.00 78 1006.7
20260505121602 2 88 6.4 19.3 0.00 0.03 0.00 78 1006.7
20260505121102 2 209 3.2 14.5 0.00 0.03 0.00 78 1006.7
20260505120602 2 99 6.4 19.3 0.00 0.03 0.00 78 1006.7
20260505120333 2 153 9.7 19.3 0.00 0.03 0.00 78 1006.6
20260505115103 3 86 8.0 19.3 0.00 0.03 0.00 77 1006.6
20260505114605 3 223 6.4 17.7 0.00 0.03 0.00 76 1006.5
20260505114101 3 103 6.4 17.7 0.00 0.03 0.00 76 1006.5
20260505113600 3 104 6.4 17.7 0.00 0.03 0.00 76 1006.6
20260505113100 3 85 3.2 12.9 0.00 0.03 0.00 76 1006.7
20260505112602 3 138 1.6 12.9 0.00 0.03 0.00 76 1006.7
20260505112055 2 176 3.2 8.0 0.00 0.03 0.00 76 1006.7
20260505111553 2 153 3.2 9.7 0.00 0.03 0.00 76 1006.6
20260505111054 2 140 1.6 9.7 0.00 0.03 0.00 76 1006.6
20260505110552 2 173 1.6 9.7 0.00 0.03 0.00 76 1006.7
20260505102050 3 145 3.2 11.3 0.00 0.03 0.00 73 1006.5
20260505101818 3 189 3.2 11.3 0.00 0.03 0.00 72 1006.5
20260505101052 3 81 3.2 11.3 0.00 0.03 0.00 72 1006.6
20260505100550 3 123 3.2 12.9 0.00 0.03 0.00 72 1006.5
20260505100051 3 208 1.6 12.9 0.00 0.03 0.00 71 1006.5
20260505095547 3 126 1.6 9.7 0.00 0.03 0.00 70 1006.6
20260505095048 3 120 1.6 9.7 0.00 0.03 0.00 70 1006.5
20260505094547 3 149 3.2 11.3 0.00 0.03 0.00 69 1006.6
20260505094046 3 87 3.2 11.3 0.00 0.03 0.00 69 1006.4
20260505093546 3 86 3.2 9.7 0.00 0.03 0.00 69 1006.4
20260505093046 3 148 3.2 9.7 0.00 0.03 0.00 68 1006.3
20260505092816 3 98 4.8 9.7 0.00 0.03 0.00 68 1006.3
20260505092044 3 150 8.0 16.1 0.00 0.03 0.00 68 1006.3
20260505091544 3 86 6.4 16.1 0.00 0.03 0.00 68 1006.3
20260505091536 3 122 3.2 16.1 0.00 0.03 0.00 68 1006.3
20260505090541 3 101 3.2 11.3 0.00 0.03 0.00 68 1006.1
20260505090042 3 154 3.2 11.3 0.00 0.03 0.00 68 1006.3
20260505085542 3 106 1.6 16.1 0.00 0.03 0.00 67 1006.1
20260505085043 4 142 1.6 16.1 0.00 0.03 0.00 67 1006.3
20260505084540 4 110 6.4 16.1 0.00 0.03 0.00 66 1006.0
20260505084041 4 95 6.4 19.3 0.00 0.03 0.00 65 1006.1
20260505083540 5 73 6.4 19.3 0.00 0.03 0.00 66 1006.3
20260505083530 5 107 6.4 17.7 0.00 0.03 0.00 65 1006.1
20260505082541 5 81 1.6 11.3 0.00 0.03 0.00 66 1006.1
20260505082036 5 106 4.8 11.3 0.00 0.03 0.00 66 1006.1
20260505081538 5 92 6.4 14.5 0.00 0.03 0.00 66 1006.3
20260505081036 5 100 6.4 14.5 0.00 0.03 0.00 67 1006.3
20260505080537 5 101 8.0 20.9 0.00 0.03 0.00 67 1006.3
20260505080036 5 107 6.4 20.9 0.00 0.03 0.00 67 1006.3
20260505075541 5 107 3.2 11.3 0.00 0.03 0.00 67 1006.3
20260505075038 5 151 1.6 9.7 0.00 0.03 0.00 67 1006.4
20260505074805 5 123 4.8 12.9 0.00 0.03 0.00 66 1006.4
20260505074311 5 146 4.8 14.5 0.00 0.03 0.00 66 1006.4
20260505073530 5 69 4.8 14.5 0.00 0.03 0.00 66 1006.4
20260505073031 5 71 6.4 17.7 0.00 0.03 0.00 66 1006.5
20260505072531 6 86 8.0 17.7 0.00 0.03 0.00 65 1006.3
20260505072033 6 61 9.7 20.9 0.00 0.03 0.00 66 1006.4
20260505071532 6 69 9.7 20.9 0.00 0.03 0.00 66 1006.3
20260505071030 6 59 9.7 20.9 0.00 0.03 0.00 67 1006.4
20260505070530 6 50 9.7 20.9 0.00 0.03 0.00 67 1006.3
20260505070302 6 340 9.7 19.3 0.00 0.03 0.00 68 1006.4
20260505065530 6 17 9.7 19.3 0.00 0.03 0.00 68 1006.3
20260505065030 6 328 11.3 22.5 0.00 0.03 0.00 68 1006.3
20260505064529 6 339 9.7 22.5 0.00 0.03 0.00 69 1006.4
20260505064307 6 17 9.7 17.7 0.00 0.03 0.00 70 1006.4
20260505063528 6 325 9.7 17.7 0.00 0.03 0.00 71 1006.4
20260505063028 6 338 8.0 17.7 0.00 0.03 0.00 72 1006.5
20260505062528 6 41 8.0 17.7 0.00 0.03 0.00 70 1006.3
20260505062255 6 28 6.4 14.5 0.00 0.03 0.00 71 1006.3
20260505061525 6 53 6.4 14.5 0.00 0.03 0.00 71 1006.4
20260505061019 6 49 11.3 14.5 0.00 0.03 0.00 72 1006.4
20260505060514 6 53 11.3 20.9 0.00 0.03 0.00 70 1006.4
20260505060012 6 55 11.3 20.9 0.00 0.03 0.00 70 1006.3
20260505055739 7 62 11.3 20.9 0.00 0.03 0.03 69 1006.1
20260505055011 7 47 9.7 20.9 0.00 0.03 0.03 69 1006.1
20260505054511 7 64 9.7 20.9 0.00 0.03 0.03 70 1006.0
20260505054010 7 55 11.3 20.9 0.00 0.03 0.03 69 1005.9
20260505053509 7 70 11.3 16.1 0.03 0.03 0.03 70 1005.9
20260505053503 8 61 11.3 17.7 0.03 0.03 0.03 69 1006.1
20260505052510 8 65 11.3 17.7 0.03 0.03 0.03 70 1006.1
20260505052008 8 57 9.7 16.1 0.03 0.03 0.03 70 1006.0
20260505051508 8 92 8.0 16.1 0.03 0.03 0.03 70 1006.0
20260505051012 8 61 9.7 22.5 0.03 0.03 0.03 69 1006.1
20260505050508 8 84 11.3 30.6 0.03 0.03 0.03 70 1006.1
20260505050454 8 92 12.9 30.6 0.03 0.03 0.03 68 1006.1
20260505041503 10 68 16.1 25.7 0.00 0.00 0.00 46 1006.0
20260505041002 11 81 17.7 30.6 0.00 0.00 0.00 46 1005.9
20260505040503 11 82 19.3 30.6 0.00 0.00 0.00 45 1005.7
20260505040005 11 89 14.5 33.8 0.00 0.00 0.00 46 1005.5
20260505035502 11 67 8.0 33.8 0.00 0.00 0.00 47 1005.5
20260505035001 11 53 4.8 16.1 0.00 0.00 0.00 54 1005.3
20260505034503 11 90 6.4 16.1 0.00 0.00 0.00 53 1005.2
20260505034001 11 171 8.0 16.1 0.00 0.00 0.00 53 1004.9
20260505033735 11 166 11.3 24.1 0.00 0.00 0.00 55 1004.8
20260505033001 11 168 12.9 38.6 0.00 0.00 0.00 52 1004.8
20260505032501 11 192 14.5 38.6 0.00 0.00 0.00 53 1004.7
20260505032002 12 92 24.1 53.1 0.00 0.00 0.00 48 1004.8
20260505031727 12 53 20.9 53.1 0.00 0.00 0.00 44 1004.6
20260505031003 13 355 16.1 30.6 0.00 0.00 0.00 37 1004.1
20260505030503 13 59 19.3 33.8 0.00 0.00 0.00 37 1004.1
20260505030002 13 55 19.3 33.8 0.00 0.00 0.00 36 1004.0
20260505025730 13 59 19.3 33.8 0.00 0.00 0.00 36 1003.8
20260505025004 13 86 20.9 38.6 0.00 0.00 0.00 35 1003.7
20260505024503 13 79 20.9 38.6 0.00 0.00 0.00 35 1003.5
20260505024002 13 61 19.3 35.4 0.00 0.00 0.00 35 1003.4
20260505023504 13 80 20.9 45.1 0.00 0.00 0.00 35 1003.2
20260505023459 13 78 27.4 45.1 0.00 0.00 0.00 34 1003.0
20260505022502 13 85 29.0 45.1 0.00 0.00 0.00 34 1003.0
20260505022002 14 67 27.4 45.1 0.00 0.00 0.00 34 1002.8
20260505021505 14 56 27.4 45.1 0.00 0.00 0.00 33 1002.6
20260505021458 14 79 30.6 45.1 0.00 0.00 0.00 33 1002.5
20260505020502 15 53 29.0 51.5 0.00 0.00 0.00 32 1002.3
20260505020004 15 71 25.7 51.5 0.00 0.00 0.00 31 1002.0
20260505015504 16 58 19.3 41.8 0.00 0.00 0.00 29 1002.2
20260505015002 16 92 12.9 25.7 0.00 0.00 0.00 24 1002.0
20260505014733 16 68 8.0 17.7 0.00 0.00 0.00 24 1002.0
20260505014002 16 23 4.8 14.5 0.00 0.00 0.00 24 1002.2
20260505013733 16 10 6.4 14.5 0.00 0.00 0.00 24 1002.3
20260505013004 16 53 9.7 29.0 0.00 0.00 0.00 24 1002.2
20260505012502 17 80 14.5 29.0 0.00 0.00 0.00 22 1002.3
20260505012002 17 49 17.7 33.8 0.00 0.00 0.00 22 1002.2
20260505011502 17 58 19.3 33.8 0.00 0.00 0.00 22 1001.9
20260505011005 17 350 19.3 33.8 0.00 0.00 0.00 22 1001.8
20260505010731 17 343 17.7 35.4 0.00 0.00 0.00 22 1001.8
20260505010004 17 40 17.7 35.4 0.00 0.00 0.00 21 1001.8
20260505005502 17 41 20.9 37.0 0.00 0.00 0.00 21 1001.8
20260505005231 18 327 19.3 37.0 0.00 0.00 0.00 21 1001.7
20260505004728 18 34 12.9 32.2 0.00 0.00 0.00 20 1001.7
20260505004003 18 35 9.7 16.1 0.00 0.00 0.00 18 1001.7
20260505003501 19 33 11.3 29.0 0.00 0.00 0.00 18 1001.5
20260505003002 19 333 11.3 29.0 0.00 0.00 0.00 18 1001.7
20260505002501 20 333 12.9 29.0 0.00 0.00 0.00 17 1001.5
20260505002000 20 313 11.3 29.0 0.00 0.00 0.00 17 1001.5
20260505001727 20 258 9.7 19.3 0.00 0.00 0.00 17 1001.4
20260505001003 20 304 11.3 19.3 0.00 0.00 0.00 16 1001.4
20260505000501 20 316 11.3 19.3 0.00 0.00 0.00 17 1001.7
20260505000003 20 285 11.3 19.3 0.00 0.00 0.00 17 1001.5
20260504235501 20 36 9.7 20.9 0.00 0.00 0.00 17 1001.5
20260504235001 19 286 9.7 20.9 0.00 0.00 0.00 17 1001.5
20260504234502 19 283 11.3 20.9 0.00 0.00 0.00 17 1001.7
20260504233501 20 29 8.0 17.7 0.00 0.00 0.00 17 1001.5
20260504233001 20 53 11.3 33.8 0.00 0.00 0.00 18 1001.5
20260504232501 19 37 17.7 33.8 0.00 0.00 0.00 17 1001.5
20260504232229 19 56 19.3 33.8 0.00 0.00 0.00 18 1001.5
20260504231002 20 34 17.7 30.6 0.00 0.00 0.00 17 1001.5
20260504230501 20 300 17.7 32.2 0.00 0.00 0.00 17 1001.5
20260504230001 20 338 14.5 32.2 0.00 0.00 0.00 16 1001.5
20260504225502 20 25 11.3 30.6 0.00 0.00 0.00 16 1001.5
20260504225003 20 310 9.7 20.9 0.00 0.00 0.00 16 1001.4
20260504224502 20 301 11.3 24.1 0.00 0.00 0.00 16 1001.4
20260504224001 20 20 12.9 25.7 0.00 0.00 0.00 16 1001.7
20260504223501 20 303 11.3 25.7 0.00 0.00 0.00 15 1001.5
20260504223003 20 318 9.7 24.1 0.00 0.00 0.00 16 1001.5
20260504222501 20 314 14.5 32.2 0.00 0.00 0.00 16 1001.7
20260504222449 20 92 17.7 35.4 0.00 0.00 0.00 15 1001.7
20260504221503 20 297 14.5 35.4 0.00 0.00 0.00 16 1001.7
20260504221001 20 55 11.3 22.5 0.00 0.00 0.00 17 1001.8
20260504220501 20 333 14.5 24.1 0.00 0.00 0.00 17 1001.8
20260504220001 20 314 14.5 24.1 0.00 0.00 0.00 17 1001.9
20260504215504 20 24 9.7 19.3 0.00 0.00 0.00 18 1002.0
20260504215230 19 291 9.7 20.9 0.00 0.00 0.00 17 1002.0
20260504214501 19 55 11.3 20.9 0.00 0.00 0.00 18 1002.2
20260504214003 18 351 11.3 25.7 0.00 0.00 0.00 18 1002.3
20260504213501 18 22 11.3 25.7 0.00 0.00 0.00 18 1002.5
20260504213002 19 311 16.1 29.0 0.00 0.00 0.00 17 1002.5
20260504212504 20 325 12.9 29.0 0.00 0.00 0.00 16 1002.6
20260504212005 20 38 6.4 19.3 0.00 0.00 0.00 16 1002.6
20260504211502 20 217 8.0 32.2 0.00 0.00 0.00 17 1002.6
20260504211004 20 282 12.9 32.2 0.00 0.00 0.00 16 1002.6
20260504210502 19 53 16.1 33.8 0.00 0.00 0.00 16 1002.8
20260504210004 19 302 14.5 33.8 0.00 0.00 0.00 16 1002.8
20260504205728 19 347 9.7 22.5 0.00 0.00 0.00 17 1002.9
20260504205001 18 260 12.9 25.7 0.00 0.00 0.00 16 1002.9
20260504204504 19 296 11.3 25.7 0.00 0.00 0.00 15 1003.0
20260504204003 19 294 11.3 22.5 0.00 0.00 0.00 16 1003.0
20260504203501 20 292 14.5 24.1 0.00 0.00 0.00 15 1003.1
20260504203001 20 311 14.5 24.1 0.00 0.00 0.00 16 1003.1
20260504202503 19 290 11.3 22.5 0.00 0.00 0.00 17 1003.1
20260504202001 20 252 9.7 25.7 0.00 0.00 0.00 16 1003.2
20260504201501 19 319 8.0 25.7 0.00 0.00 0.00 16 1003.4
20260504201001 19 257 8.0 19.3 0.00 0.00 0.00 17 1003.4
20260504200502 18 28 9.7 19.3 0.00 0.00 0.00 17 1003.6
20260504200225 18 74 11.3 19.3 0.00 0.00 0.00 17 1003.6
20260504195501 18 319 11.3 20.9 0.00 0.00 0.00 17 1003.7
20260504195003 19 310 12.9 20.9 0.00 0.00 0.00 17 1003.7
20260504194501 19 334 11.3 20.9 0.00 0.00 0.00 17 1003.6
20260504194227 19 321 9.7 20.9 0.00 0.00 0.00 17 1003.8
20260504193502 19 259 9.7 20.9 0.00 0.00 0.00 17 1003.7
20260504193000 18 304 9.7 20.9 0.00 0.00 0.00 18 1004.0
20260504192501 18 291 8.0 20.9 0.00 0.00 0.00 18 1004.0
20260504192001 18 333 9.7 22.5 0.00 0.00 0.00 18 1004.1
20260504191504 18 294 12.9 22.5 0.00 0.00 0.00 18 1004.2
20260504191227 18 306 11.3 24.1 0.00 0.00 0.00 17 1004.2
20260504190500 18 39 12.9 25.7 0.00 0.00 0.00 18 1004.2
20260504190002 18 337 14.5 25.7 0.00 0.00 0.00 18 1004.4
20260504185500 19 341 9.7 24.1 0.00 0.00 0.00 18 1004.4
20260504185000 18 315 6.4 19.3 0.00 0.00 0.00 18 1004.4
20260504184503 18 233 6.4 19.3 0.00 0.00 0.00 19 1004.7
20260504184209 18 266 9.7 19.3 0.00 0.00 0.00 19 1004.8
20260504183001 18 250 11.3 22.5 0.00 0.00 0.00 19 1004.8
20260504182731 17 296 11.3 22.5 0.00 0.00 0.00 19 1004.9
20260504182000 18 325 8.0 19.3 0.00 0.00 0.00 19 1005.0
20260504181500 18 267 6.4 22.5 0.00 0.00 0.00 18 1005.0
20260504181002 18 342 4.8 22.5 0.00 0.00 0.00 20 1005.0
20260504180727 18 271 4.8 14.5 0.00 0.00 0.00 20 1005.2
20260504180118 17 163 6.4 14.5 0.00 0.00 0.00 20 1005.3
20260504175502 17 269 4.8 14.5 0.00 0.00 0.00 20 1005.3
20260504175001 17 315 4.8 14.5 0.00 0.00 0.00 21 1005.4
20260504174500 17 340 8.0 16.1 0.00 0.00 0.00 21 1005.4
20260504174000 17 82 6.4 16.1 0.00 0.00 0.00 21 1005.5
20260504173500 17 40 3.2 9.7 0.00 0.00 0.00 21 1005.7
20260504173452 18 142 3.2 12.9 0.00 0.00 0.00 23 1005.5
20260504172500 17 233 6.4 12.9 0.00 0.00 0.00 23 1005.7
20260504172001 17 62 6.4 12.9 0.00 0.00 0.00 24 1005.7
20260504171731 17 78 6.4 17.7 0.00 0.00 0.00 23 1005.7
20260504171001 17 171 8.0 17.7 0.00 0.00 0.00 24 1005.8
20260504170500 17 254 9.7 17.7 0.00 0.00 0.00 24 1005.8
20260504151004 10 53 11.3 14.5 0.00 0.00 0.00 40 1006.6
20260504150504 9 40 11.3 16.1 0.00 0.00 0.00 41 1006.5